Wind_Speed
13 14 15 17 18 19 20 21 21 21 22 23 23 24 24 24 25 24 25 25 26 27 27 27 28 28 28 29 29 29 30 30 30 30 30 30 30 29
14 15 17 17 18 19 20 21 22 22 22 23 24 25 24 24 25 25 25 25 25 26 27 28 28 29 29 29 30 30 30 30 30 31 31 30 30 30
16 18 18 18 19 19 20 21 23 23 24 24 25 25 26 25 25 25 26 26 26 26 27 27 28 29 29 30 30 30 30 30 31 31 31 30 31 31
17 18 19 19 20 21 21 21 22 23 23 24 25 26 26 26 26 26 26 27 27 27 27 28 29 29 29 30 29 30 31 31 31 31 31 31 32 32
18 18 19 20 20 21 22 22 23 24 24 24 24 25 26 27 27 27 27 27 27 28 28 29 29 29 29 30 29 30 31 31 31 31 31 32 32 32
19 20 20 21 21 22 22 23 24 24 24 24 23 25 26 26 26 27 27 27 28 29 29 29 29 29 30 30 30 30 30 31 31 32 32 32 32 33
21 22 22 22 21 22 22 23 24 24 24 25 25 25 26 26 26 27 27 26 27 28 28 29 30 30 30 31 31 31 30 31 32 32 32 32 32 32
24 24 24 23 23 23 23 23 24 24 25 25 26 26 27 27 27 27 27 27 28 28 29 29 30 31 31 31 31 31 31 32 32 32 32 32 32 32
25 25 25 25 25 25 25 25 25 25 25 25 26 26 27 27 27 27 28 28 28 29 30 30 31 31 32 32 32 32 32 32 33 33 33 33 32 32
27 27 27 27 27 27 26 26 27 27 27 26 26 26 27 27 27 28 28 28 28 29 30 30 31 32 33 33 33 34 34 34 34 35 35 35 34 34
28 28 28 28 28 27 26 27 27 27 27 27 27 27 27 28 28 28 29 29 29 30 30 31 32 33 34 34 34 34 34 34 35 35 35 35 35 35
29 30 29 29 29 28 27 27 28 28 28 28 28 28 28 28 29 29 29 29 29 30 31 32 32 33 33 33 33 34 34 34 35 35 35 35 36 36
30 31 31 30 30 30 29 29 29 29 29 29 29 29 30 30 30 30 30 31 31 31 32 32 33 33 33 33 34 34 35 35 35 35 35 35 36 37
32 31 31 31 31 31 30 30 31 31 30 30 30 30 30 31 31 32 32 32 32 33 33 34 34 34 34 35 35 36 36 36 36 36 37 37 37 38
33 33 33 33 33 32 32 32 32 32 32 32 31 31 31 32 32 32 33 33 33 34 34 35 35 36 36 37 37 37 37 37 37 37 37 37 38 38
34 34 34 34 34 34 34 34 34 34 34 33 33 33 32 32 33 33 34 35 35 36 36 36 36 37 37 38 38 38 38 38 38 38 39 39 39 38
35 36 36 35 36 36 36 36 35 35 35 34 34 34 34 34 35 35 36 36 36 37 37 38 38 39 39 39 39 39 39 39 39 39 39 38 38 38
36 37 37 37 37 37 37 37 37 37 36 36 36 36 36 36 36 36 37 37 37 38 38 39 39 39 39 39 40 39 39 39 39 39 39 39 38 38
37 37 38 38 37 37 37 38 38 38 38 38 38 38 37 38 38 38 38 38 38 38 39 39 39 39 39 39 39 40 39 39 39 40 40 40 39 38
37 38 38 38 38 38 38 38 38 38 38 39 39 39 39 39 39 39 39 39 39 40 40 40 40 40 40 40 39 39 40 39 39 39 39 39 39 38
39 39 39 39 38 38 38 38 37 37 38 38 39 38 38 39 39 40 40 40 41 41 41 41 41 41 41 40 40 40 40 39 39 38 38 37 37 35
40 39 39 38 38 38 38 37 37 37 38 39 39 39 39 39 40 40 40 41 41 41 41 41 41 41 41 40 40 40 40 40 39 38 37 36 36 34
39 39 38 38 38 37 37 36 37 38 39 39 39 39 39 39 39 39 40 40 40 40 40 40 40 40 40 39 39 39 39 38 38 37 36 34 34 33
Wind_Direction
298 294 290 288 287 286 284 281 281 280 281 283 282 281 281 280 279 280 279 277 276 275 276 277 277 278 279 279 278 278 278 279 279 280 281 282 282 282
300 300 296 295 292 290 285 281 280 280 279 281 282 281 282 279 278 277 277 277 277 277 277 278 279 279 280 279 279 280 280 279 279 280 281 281 281 281
302 300 299 297 294 292 291 287 282 280 279 279 282 281 280 280 280 278 277 276 277 278 278 278 280 280 281 281 280 280 281 281 281 281 282 282 281 281
307 303 299 297 296 293 292 291 288 285 283 281 281 280 279 279 279 279 279 279 279 278 278 279 280 280 280 281 282 282 282 282 281 282 283 282 282 281
309 306 303 301 299 296 293 292 290 288 286 283 282 282 282 281 280 281 281 279 280 279 279 279 279 279 280 281 282 283 282 282 282 283 281 283 282 281
311 308 303 301 300 298 295 293 291 290 288 286 286 284 283 283 283 283 283 282 280 279 279 279 279 279 280 281 283 284 283 283 283 282 282 283 283 282
314 313 308 304 303 302 302 299 295 292 290 289 287 287 286 285 285 284 284 285 284 282 280 279 279 280 281 282 284 284 285 284 282 281 281 282 282 281
312 312 311 307 305 302 302 301 298 294 291 289 288 287 287 286 285 285 283 283 285 283 281 281 282 282 283 283 283 283 284 284 283 282 281 281 281 281
313 310 308 306 304 302 300 299 297 295 292 290 289 288 289 287 286 286 285 283 284 284 282 282 282 282 282 282 282 283 283 284 283 282 281 281 280 280
313 312 309 306 305 303 300 299 297 295 294 291 290 290 290 289 288 287 286 285 285 285 284 282 283 283 283 283 283 282 283 283 283 281 280 280 279 280
311 311 310 309 306 303 301 299 298 297 295 293 290 289 289 289 288 287 287 287 287 287 287 286 285 285 284 284 284 283 284 285 284 281 279 279 279 279
309 308 308 307 307 304 301 300 299 299 297 295 292 290 288 288 289 288 288 288 289 289 288 287 286 285 285 286 286 286 286 286 285 283 280 279 278 278
306 305 305 304 304 303 300 299 299 298 298 295 292 290 289 289 289 288 288 289 288 289 289 288 288 287 287 286 286 286 287 287 286 285 283 281 280 280
303 303 302 302 301 301 300 298 297 297 297 295 293 291 290 289 289 288 288 288 288 288 288 288 288 288 288 287 286 286 286 286 285 284 284 282 282 281
301 301 300 300 300 299 299 297 296 295 294 294 292 291 290 290 289 288 287 287 287 288 288 289 288 288 289 289 288 286 285 285 285 284 283 283 283 282
299 299 299 298 298 298 298 297 296 295 293 292 292 292 291 290 290 290 289 288 288 288 288 288 288 289 289 289 288 287 286 286 285 285 283 283 283 282
297 298 298 296 296 296 297 296 295 294 293 292 292 291 291 291 291 290 290 289 289 288 288 289 289 289 289 288 288 287 286 286 286 285 285 284 284 283
295 295 295 295 294 294 294 294 293 292 291 291 291 290 290 290 290 290 291 290 289 289 289 289 289 289 289 288 288 288 287 287 287 286 286 284 284 283
293 294 294 295 294 294 293 293 292 291 290 289 289 289 290 290 290 290 290 290 289 289 289 289 288 288 288 288 288 287 288 287 287 286 286 285 284 283
293 293 294 294 294 293 292 293 292 290 289 289 288 289 289 290 290 290 290 290 289 289 290 290 290 289 289 288 287 287 288 288 287 287 285 284 283 282
293 293 294 293 293 292 292 292 291 290 290 291 290 290 291 291 291 291 291 290 290 290 290 291 290 289 288 288 288 288 288 288 288 288 287 285 282 281
293 293 292 292 292 292 292 291 290 290 291 291 291 291 291 291 292 292 291 290 290 290 290 290 290 290 290 289 289 289 289 288 288 288 287 286 285 283
291 291 291 291 291 292 292 292 292 292 293 293 293 293 293 293 293 293 293 293 292 292 292 292 291 291 291 291 291 290 289 288 287 286 287 286 285 283
Height
5869 5868 5867 5865 5864 5863 5862 5861 5861 5861 5860 5859 5858 5857 5856 5855 5855 5854 5853 5853 5852 5852 5851 5850 5849 5848 5848 5847 5846 5845 5844 5843 5842 5841 5840 5839 5838 5838
5866 5864 5863 5861 5860 5859 5857 5856 5856 5855 5855 5854 5852 5851 5850 5849 5848 5848 5847 5846 5846 5845 5844 5843 5842 5841 5840 5839 5838 5837 5836 5835 5834 5834 5832 5831 5831 5830
5862 5861 5859 5857 5856 5854 5852 5851 5850 5849 5849 5848 5846 5845 5844 5843 5842 5841 5840 5840 5839 5838 5837 5836 5835 5834 5833 5832 5831 5830 5829 5828 5826 5826 5825 5824 5823 5822
5858 5856 5854 5853 5851 5849 5848 5846 5845 5843 5843 5842 5840 5839 5838 5837 5836 5835 5834 5833 5832 5831 5830 5829 5828 5827 5826 5824 5823 5822 5821 5820 5819 5818 5817 5815 5814 5813
5854 5852 5850 5848 5846 5844 5843 5841 5839 5838 5836 5835 5834 5833 5831 5830 5829 5828 5827 5826 5825 5824 5823 5822 5821 5820 5818 5817 5816 5814 5813 5812 5811 5810 5808 5807 5806 5805
5850 5848 5846 5844 5841 5839 5837 5835 5833 5832 5830 5829 5828 5826 5825 5823 5822 5821 5819 5818 5818 5816 5815 5814 5813 5812 5811 5809 5808 5806 5805 5804 5802 5801 5800 5799 5797 5796
5846 5843 5841 5838 5836 5834 5832 5829 5827 5825 5824 5822 5821 5820 5818 5816 5815 5814 5812 5811 5810 5809 5807 5806 5805 5804 5803 5801 5800 5799 5797 5795 5794 5792 5791 5790 5789 5787
5841 5838 5836 5833 5831 5828 5826 5824 5822 5819 5817 5816 5814 5812 5811 5809 5807 5806 5805 5804 5802 5801 5799 5798 5797 5796 5794 5793 5791 5790 5789 5787 5786 5784 5783 5781 5780 5779
5836 5833 5830 5827 5824 5822 5820 5817 5815 5813 5811 5809 5807 5805 5803 5801 5800 5798 5797 5796 5794 5793 5791 5790 5788 5787 5786 5784 5782 5781 5779 5778 5776 5775 5774 5772 5771 5769
5830 5827 5824 5821 5818 5815 5813 5811 5808 5806 5803 5801 5800 5798 5796 5794 5792 5791 5789 5788 5787 5785 5783 5781 5780 5778 5776 5775 5773 5771 5770 5768 5767 5765 5764 5762 5761 5760
5824 5821 5818 5814 5812 5808 5806 5803 5801 5798 5796 5794 5792 5790 5788 5786 5784 5783 5781 5780 5778 5776 5774 5773 5771 5769 5767 5765 5763 5761 5760 5758 5756 5755 5753 5752 5751 5749
5817 5814 5811 5808 5804 5802 5799 5796 5794 5791 5789 5786 5784 5782 5780 5778 5776 5775 5773 5771 5769 5767 5765 5763 5761 5759 5757 5756 5754 5752 5749 5748 5746 5744 5743 5741 5740 5738
5809 5806 5803 5800 5797 5794 5791 5789 5786 5784 5781 5779 5776 5774 5772 5770 5768 5766 5764 5762 5760 5758 5757 5754 5752 5750 5748 5746 5744 5742 5740 5738 5736 5734 5732 5730 5729 5727
5801 5798 5795 5793 5790 5787 5784 5781 5778 5776 5773 5771 5768 5766 5764 5762 5759 5757 5755 5753 5751 5749 5747 5745 5742 5740 5738 5736 5734 5732 5729 5727 5725 5723 5721 5719 5717 5716
5792 5789 5787 5784 5781 5778 5775 5773 5770 5767 5765 5762 5760 5757 5755 5753 5750 5748 5746 5743 5741 5739 5737 5734 5732 5730 5727 5725 5723 5721 5719 5716 5714 5712 5710 5708 5706 5704
5782 5780 5777 5775 5772 5769 5766 5763 5761 5758 5755 5753 5750 5748 5746 5743 5741 5739 5736 5734 5731 5729 5726 5724 5721 5719 5716 5714 5711 5709 5707 5705 5703 5700 5698 5696 5694 5693
5773 5770 5767 5765 5762 5759 5756 5753 5751 5748 5745 5743 5740 5738 5735 5733 5731 5728 5726 5723 5721 5718 5716 5713 5710 5707 5704 5702 5700 5697 5695 5693 5690 5688 5686 5684 5682 5680
5763 5760 5757 5754 5751 5749 5746 5743 5740 5737 5735 5732 5730 5727 5725 5722 5720 5717 5714 5712 5710 5707 5704 5702 5699 5696 5693 5690 5688 5685 5683 5680 5678 5676 5673 5672 5670 5668
5752 5749 5746 5744 5741 5738 5735 5732 5729 5726 5724 5721 5718 5716 5713 5711 5708 5705 5703 5700 5697 5695 5692 5689 5687 5684 5682 5679 5676 5673 5670 5668 5665 5663 5661 5659 5657 5656
5740 5738 5735 5732 5729 5726 5723 5720 5718 5715 5712 5709 5707 5704 5701 5699 5696 5693 5691 5688 5685 5682 5680 5677 5674 5672 5669 5667 5664 5661 5657 5655 5652 5650 5648 5646 5645 5643
5729 5726 5723 5720 5717 5715 5712 5709 5706 5703 5701 5698 5695 5692 5689 5687 5684 5681 5678 5675 5672 5670 5667 5664 5661 5659 5656 5654 5651 5648 5645 5642 5640 5638 5636 5634 5632 5631
5717 5714 5711 5708 5705 5703 5700 5697 5695 5692 5689 5686 5683 5680 5677 5675 5672 5669 5666 5663 5660 5657 5654 5651 5648 5645 5643 5640 5638 5635 5632 5630 5627 5625 5623 5621 5620 5619
5705 5702 5699 5697 5694 5691 5688 5686 5683 5680 5678 5675 5672 5669 5666 5663 5660 5657 5654 5651 5647 5644 5641 5639 5636 5633 5630 5627 5625 5622 5619 5617 5615 5613 5612 5609 5608 5607